Location: Avully
(45.9633°N, 6.0228°E)
Time: 01:55:03
(UTC+00:00)

Cosmos 2098 Rocket - Pass Details

Date: 23 May 2024
Orbit: 360 x 1020 km, 82.9° (Epoch: 16 June)

Event Time Altitude Azimuth Distance (km) Brightness Sun altitude
Rises 02:37:28 0° 346° (NNW) 3,108 7.1 -11.3°
Maximum altitude 02:44:41 50° 267° (W) 1,071 4.0 -10.5°
Drops below altitude 10° 02:50:31 10° 194° (SSW) 2,652 5.8 -9.7°
Enters shadow 02:51:49 - 191° (S) 3,128 6.2 -9.6°
